Photometre #853[NE_1.6_Dp] Portglenone_MO AOT

File : 20210610_853.hum

10/06/2021,05:08:55,TEMP=20.1,BA=5.44,STAT.b=19.0
10/06/2021,05:13:17,TEMP=20.1,BA=5.40,STAT.b=19.0
10/06/2021,05:14:38,TEMP=20.1,BA=5.40,STAT.b=19.0
10/06/2021,05:16:17,TEMP=20.1,BA=5.40,STAT.b=19.0
10/06/2021,05:19:17,TEMP=20.1,BA=5.40,STAT.b=19.0
10/06/2021,05:20:38,TEMP=20.1,BA=5.36,STAT.b=19.0
10/06/2021,05:26:24,TEMP=17.0,BA=5.36,STAT.D,ExtBa=12.20
10/06/2021,05:27:59,TEMP=17.1,BA=5.36,STAT.b=19.0
10/06/2021,05:29:19,TEMP=17.1,BA=5.36,STAT.b=19.0
10/06/2021,05:34:39,TEMP=17.1,BA=5.44,STAT.b=19.0
10/06/2021,05:37:17,TEMP=17.1,BA=5.44,STAT.b=19.0
10/06/2021,05:40:17,TEMP=17.1,BA=5.36,STAT.b=19.0
10/06/2021,05:43:17,TEMP=17.1,BA=5.36,STAT.b=19.0
10/06/2021,05:44:38,TEMP=17.1,BA=5.36,STAT.b=19.0
10/06/2021,05:46:17,TEMP=17.1,BA=5.36,STAT.b=19.0
10/06/2021,05:49:17,TEMP=17.1,BA=5.36,STAT.b=19.0
10/06/2021,05:52:17,TEMP=17.1,BA=5.52,STAT.b=19.0
10/06/2021,05:55:17,TEMP=17.1,BA=5.52,STAT.b=19.0
10/06/2021,05:56:38,TEMP=17.1,BA=5.52,STAT.b=19.0
10/06/2021,05:58:17,TEMP=17.1,BA=5.52,STAT.b=19.0
10/06/2021,06:01:17,TEMP=17.1,BA=5.60,STAT.b=19.0
10/06/2021,06:02:38,TEMP=17.1,BA=5.60,STAT.b=19.0
10/06/2021,06:04:17,TEMP=17.1,BA=5.60,STAT.b=19.0
10/06/2021,06:07:17,TEMP=17.1,BA=5.60,STAT.b=19.0
10/06/2021,06:08:41,TEMP=17.1,BA=5.60,STAT.b=19.0
10/06/2021,06:10:17,TEMP=17.1,BA=5.40,STAT.b=19.0
10/06/2021,06:13:17,TEMP=17.1,BA=5.40,STAT.b=19.0
10/06/2021,06:15:46,TEMP=17.1,BA=5.40,STAT.b=19.0
10/06/2021,06:19:17,TEMP=17.1,BA=5.40,STAT.b=19.0
10/06/2021,06:22:17,TEMP=17.1,BA=5.60,STAT.b=19.0
10/06/2021,06:23:43,TEMP=17.1,BA=5.60,STAT.b=19.0
10/06/2021,06:29:29,TEMP=17.5,BA=5.60,STAT.D,ExtBa=12.20
10/06/2021,06:31:04,TEMP=17.6,BA=5.44,STAT.b=19.0
10/06/2021,06:32:43,TEMP=17.6,BA=5.44,STAT.b=19.0
10/06/2021,06:34:17,TEMP=17.6,BA=5.44,STAT.b=19.0
10/06/2021,06:37:17,TEMP=17.6,BA=5.44,STAT.b=19.0
10/06/2021,06:40:17,TEMP=17.6,BA=5.44,STAT.b=19.0
10/06/2021,06:43:02,TEMP=17.6,BA=5.44,STAT.b=19.0
10/06/2021,06:46:17,TEMP=17.6,BA=5.44,STAT.b=19.0
10/06/2021,06:49:17,TEMP=17.6,BA=5.44,STAT.b=19.0
10/06/2021,06:52:17,TEMP=17.6,BA=5.68,STAT.b=19.0
10/06/2021,06:54:58,TEMP=17.6,BA=5.68,STAT.b=19.0
10/06/2021,06:58:17,TEMP=17.6,BA=5.68,STAT.b=19.0
10/06/2021,07:01:17,TEMP=17.6,BA=5.68,STAT.b=19.0
10/06/2021,07:04:17,TEMP=17.6,BA=5.68,STAT.b=19.0
10/06/2021,07:07:17,TEMP=17.6,BA=5.68,STAT.b=19.0
10/06/2021,07:08:59,TEMP=17.6,BA=5.68,STAT.b=19.0
10/06/2021,07:13:17,TEMP=17.6,BA=5.64,STAT.b=19.0
10/06/2021,07:16:17,TEMP=17.6,BA=5.64,STAT.b=19.0
10/06/2021,07:19:17,TEMP=17.6,BA=5.64,STAT.b=19.0
10/06/2021,07:22:17,TEMP=17.6,BA=5.68,STAT.b=19.0
10/06/2021,07:25:17,TEMP=17.6,BA=5.68,STAT.b=19.0
10/06/2021,07:26:38,TEMP=17.6,BA=5.68,STAT.b=19.0
10/06/2021,07:28:17,TEMP=17.6,BA=5.68,STAT.b=19.0
10/06/2021,07:31:17,TEMP=17.6,BA=5.68,STAT.b=19.0
10/06/2021,07:34:17,TEMP=17.6,BA=5.68,STAT.b=19.0
10/06/2021,07:37:17,TEMP=17.6,BA=5.68,STAT.b=19.0
10/06/2021,07:40:17,TEMP=17.6,BA=5.52,STAT.b=19.0
10/06/2021,07:43:17,TEMP=17.6,BA=5.52,STAT.b=19.0
10/06/2021,07:46:17,TEMP=17.6,BA=5.52,STAT.b=19.0
10/06/2021,07:47:38,TEMP=17.6,BA=5.52,STAT.b=19.0
10/06/2021,07:49:17,TEMP=17.6,BA=5.52,STAT.b=19.0
10/06/2021,07:52:17,TEMP=17.6,BA=5.68,STAT.b=19.0
10/06/2021,07:55:17,TEMP=17.6,BA=5.68,STAT.b=19.0
10/06/2021,07:58:17,TEMP=17.6,BA=5.68,STAT.b=19.0
10/06/2021,08:01:17,TEMP=17.6,BA=5.56,STAT.b=19.0
10/06/2021,08:04:17,TEMP=17.6,BA=5.56,STAT.b=19.0
10/06/2021,08:07:17,TEMP=17.6,BA=5.56,STAT.b=19.0
10/06/2021,08:10:17,TEMP=17.6,BA=5.44,STAT.b=19.0
10/06/2021,08:13:17,TEMP=17.6,BA=5.44,STAT.b=19.0
10/06/2021,08:16:17,TEMP=17.6,BA=5.44,STAT.b=19.0
10/06/2021,08:19:17,TEMP=17.6,BA=5.44,STAT.b=19.0
10/06/2021,08:22:17,TEMP=17.6,BA=5.52,STAT.b=19.0
10/06/2021,08:25:17,TEMP=17.6,BA=5.52,STAT.b=19.0
10/06/2021,08:28:17,TEMP=17.6,BA=5.52,STAT.b=19.0
10/06/2021,08:29:38,TEMP=17.6,BA=5.52,STAT.b=19.0
10/06/2021,08:31:17,TEMP=17.6,BA=5.52,STAT.b=19.0
10/06/2021,08:34:17,TEMP=17.6,BA=5.52,STAT.b=19.0
10/06/2021,08:37:17,TEMP=17.6,BA=5.52,STAT.b=19.0
10/06/2021,08:40:17,TEMP=17.6,BA=5.44,STAT.b=19.0
10/06/2021,08:41:36,TEMP=17.6,BA=5.44,STAT.b=19.0
10/06/2021,08:43:17,TEMP=17.6,BA=5.44,STAT.b=19.0
10/06/2021,08:46:17,TEMP=17.6,BA=5.44,STAT.b=19.0
10/06/2021,08:49:18,TEMP=17.6,BA=5.44,STAT.b=19.0
10/06/2021,08:52:17,TEMP=17.6,BA=5.68,STAT.b=19.0
10/06/2021,08:55:17,TEMP=17.6,BA=5.68,STAT.b=19.0
10/06/2021,08:56:36,TEMP=17.6,BA=5.68,STAT.b=19.0
10/06/2021,08:58:17,TEMP=17.6,BA=5.68,STAT.b=19.0
10/06/2021,09:01:17,TEMP=17.6,BA=5.68,STAT.b=19.0
10/06/2021,09:04:17,TEMP=17.6,BA=5.68,STAT.b=19.0
10/06/2021,09:07:17,TEMP=17.6,BA=5.68,STAT.b=19.0
10/06/2021,09:10:17,TEMP=17.6,BA=5.48,STAT.b=19.0
10/06/2021,09:11:36,TEMP=17.6,BA=5.48,STAT.b=19.0
10/06/2021,09:17:27,TEMP=17.5,BA=5.48,STAT.D,ExtBa=12.20
10/06/2021,09:19:00,TEMP=17.6,BA=5.48,STAT.b=19.0
10/06/2021,09:26:41,TEMP=17.6,BA=5.60,STAT.b=19.0
10/06/2021,09:28:17,TEMP=17.6,BA=5.60,STAT.b=19.0
10/06/2021,09:31:17,TEMP=17.6,BA=5.68,STAT.b=19.0
10/06/2021,09:34:17,TEMP=17.6,BA=5.68,STAT.b=19.0
10/06/2021,09:37:17,TEMP=17.6,BA=5.68,STAT.b=19.0
10/06/2021,09:40:17,TEMP=17.6,BA=5.48,STAT.b=19.0
10/06/2021,09:41:36,TEMP=17.6,BA=5.48,STAT.b=19.0
10/06/2021,09:43:17,TEMP=17.6,BA=5.48,STAT.b=19.0
10/06/2021,09:46:17,TEMP=17.6,BA=5.48,STAT.b=19.0
10/06/2021,09:49:17,TEMP=17.6,BA=5.48,STAT.b=19.0
10/06/2021,09:52:17,TEMP=17.6,BA=5.64,STAT.b=19.0
10/06/2021,09:55:18,TEMP=17.6,BA=5.64,STAT.b=19.0
10/06/2021,09:56:36,TEMP=17.6,BA=5.64,STAT.b=19.0
10/06/2021,09:58:17,TEMP=17.6,BA=5.64,STAT.b=19.0
10/06/2021,10:01:17,TEMP=17.6,BA=5.56,STAT.b=19.0
10/06/2021,10:04:17,TEMP=17.6,BA=5.56,STAT.b=19.0
10/06/2021,10:07:17,TEMP=17.6,BA=5.56,STAT.b=19.0
10/06/2021,10:10:17,TEMP=17.6,BA=5.48,STAT.b=19.0
10/06/2021,10:11:36,TEMP=17.6,BA=5.48,STAT.b=19.0
10/06/2021,10:13:17,TEMP=17.6,BA=5.48,STAT.b=19.0
10/06/2021,10:16:17,TEMP=17.6,BA=5.48,STAT.b=19.0
10/06/2021,10:19:17,TEMP=17.6,BA=5.48,STAT.b=19.0
10/06/2021,10:22:17,TEMP=17.6,BA=5.68,STAT.b=19.0
10/06/2021,10:25:17,TEMP=17.6,BA=5.68,STAT.b=19.0
10/06/2021,10:26:38,TEMP=17.6,BA=5.68,STAT.b=19.0
10/06/2021,10:28:17,TEMP=17.6,BA=5.68,STAT.b=19.0
10/06/2021,10:31:17,TEMP=17.6,BA=5.68,STAT.b=19.0
10/06/2021,10:34:17,TEMP=17.6,BA=5.68,STAT.b=19.0
10/06/2021,10:37:17,TEMP=17.6,BA=5.68,STAT.b=19.0
10/06/2021,10:40:17,TEMP=17.6,BA=5.52,STAT.b=19.0
10/06/2021,10:41:36,TEMP=17.6,BA=5.52,STAT.b=19.0
10/06/2021,10:43:17,TEMP=17.6,BA=5.52,STAT.b=19.0
10/06/2021,10:46:17,TEMP=17.6,BA=5.52,STAT.b=19.0
10/06/2021,10:49:17,TEMP=17.6,BA=5.52,STAT.b=19.0
10/06/2021,10:52:17,TEMP=17.6,BA=5.68,STAT.b=19.0
10/06/2021,10:55:17,TEMP=17.6,BA=5.68,STAT.b=19.0
10/06/2021,10:56:36,TEMP=17.6,BA=5.68,STAT.b=19.0
10/06/2021,10:58:17,TEMP=17.6,BA=5.68,STAT.b=19.0
10/06/2021,11:01:17,TEMP=17.6,BA=5.68,STAT.b=19.0
10/06/2021,11:04:17,TEMP=17.6,BA=5.68,STAT.b=19.0
10/06/2021,11:07:34,TEMP=17.6,BA=5.68,STAT.b=19.0
10/06/2021,11:10:34,TEMP=17.6,BA=5.52,STAT.b=19.0
10/06/2021,11:12:09,TEMP=17.6,BA=5.52,STAT.b=19.0
10/06/2021,11:16:34,TEMP=17.6,BA=5.52,STAT.b=19.0
10/06/2021,11:19:34,TEMP=17.6,BA=5.52,STAT.b=19.0
10/06/2021,11:22:17,TEMP=17.6,BA=5.68,STAT.b=19.0
10/06/2021,11:25:34,TEMP=17.6,BA=5.68,STAT.b=19.0
10/06/2021,11:27:10,TEMP=17.6,BA=5.68,STAT.b=19.0
10/06/2021,11:31:17,TEMP=17.6,BA=5.68,STAT.b=19.0
10/06/2021,11:34:34,TEMP=17.6,BA=5.68,STAT.b=19.0
10/06/2021,11:37:17,TEMP=17.6,BA=5.68,STAT.b=19.0
10/06/2021,11:40:17,TEMP=17.6,BA=5.56,STAT.b=19.0
10/06/2021,11:41:36,TEMP=17.6,BA=5.56,STAT.b=19.0
10/06/2021,11:43:17,TEMP=17.6,BA=5.56,STAT.b=19.0
10/06/2021,11:46:17,TEMP=17.6,BA=5.56,STAT.b=19.0
10/06/2021,11:49:17,TEMP=17.6,BA=5.56,STAT.b=19.0
10/06/2021,11:52:17,TEMP=17.6,BA=5.68,STAT.b=19.0
10/06/2021,11:55:17,TEMP=17.6,BA=5.68,STAT.b=19.0
10/06/2021,11:56:36,TEMP=17.6,BA=5.68,STAT.b=19.0
10/06/2021,12:02:28,TEMP=20.3,BA=5.56,STAT.D,ExtBa=12.40
10/06/2021,12:04:00,TEMP=20.5,BA=5.56,STAT.b=19.0
10/06/2021,12:11:48,TEMP=21.5,BA=5.68,STAT.D,ExtBa=12.50
10/06/2021,12:13:20,TEMP=21.9,BA=5.68,STAT.b=19.0
10/06/2021,12:25:43,TEMP=21.9,BA=5.68,STAT.D,ExtBa=12.30
10/06/2021,12:27:15,TEMP=21.9,BA=5.68,STAT.b=19.0
10/06/2021,12:28:34,TEMP=21.9,BA=5.68,STAT.b=19.0
10/06/2021,12:40:17,TEMP=21.9,BA=5.52,STAT.b=19.0
10/06/2021,12:41:36,TEMP=21.9,BA=5.52,STAT.b=19.0
10/06/2021,12:43:17,TEMP=21.9,BA=5.52,STAT.b=19.0
10/06/2021,12:46:17,TEMP=21.9,BA=5.52,STAT.b=19.0
10/06/2021,12:49:17,TEMP=21.9,BA=5.52,STAT.b=19.0
10/06/2021,12:52:17,TEMP=21.9,BA=5.68,STAT.b=19.0
10/06/2021,12:55:17,TEMP=21.9,BA=5.68,STAT.b=19.0
10/06/2021,12:56:36,TEMP=21.9,BA=5.68,STAT.b=19.0
10/06/2021,12:58:17,TEMP=21.9,BA=5.68,STAT.b=19.0
10/06/2021,13:01:17,TEMP=21.9,BA=5.68,STAT.b=19.0
10/06/2021,13:04:17,TEMP=21.9,BA=5.68,STAT.b=19.0
10/06/2021,13:07:17,TEMP=21.9,BA=5.68,STAT.b=19.0
10/06/2021,13:10:17,TEMP=21.9,BA=5.52,STAT.b=19.0
10/06/2021,13:11:36,TEMP=21.9,BA=5.52,STAT.b=19.0
10/06/2021,13:13:17,TEMP=21.9,BA=5.52,STAT.b=19.0
10/06/2021,13:16:17,TEMP=21.9,BA=5.52,STAT.b=19.0
10/06/2021,13:19:17,TEMP=21.9,BA=5.52,STAT.b=19.0
10/06/2021,13:22:17,TEMP=21.9,BA=5.68,STAT.b=19.0
10/06/2021,13:25:17,TEMP=21.9,BA=5.68,STAT.b=19.0
10/06/2021,13:26:38,TEMP=21.9,BA=5.68,STAT.b=19.0
10/06/2021,13:28:17,TEMP=21.9,BA=5.68,STAT.b=19.0
10/06/2021,13:31:17,TEMP=21.9,BA=5.68,STAT.b=19.0
10/06/2021,13:34:18,TEMP=21.9,BA=5.68,STAT.b=19.0
10/06/2021,13:37:17,TEMP=21.9,BA=5.68,STAT.b=19.0
10/06/2021,13:40:17,TEMP=21.9,BA=5.52,STAT.b=19.0
10/06/2021,13:41:36,TEMP=21.9,BA=5.52,STAT.b=19.0
10/06/2021,13:43:17,TEMP=21.9,BA=5.52,STAT.b=19.0
10/06/2021,13:46:17,TEMP=21.9,BA=5.52,STAT.b=19.0
10/06/2021,13:49:17,TEMP=21.9,BA=5.52,STAT.b=19.0
10/06/2021,13:52:17,TEMP=21.9,BA=5.68,STAT.b=19.0
10/06/2021,13:55:18,TEMP=21.9,BA=5.68,STAT.b=19.0
10/06/2021,13:56:36,TEMP=21.9,BA=5.68,STAT.b=19.0
10/06/2021,13:58:17,TEMP=21.9,BA=5.68,STAT.b=19.0
10/06/2021,14:01:17,TEMP=21.9,BA=5.68,STAT.b=19.0
10/06/2021,14:04:17,TEMP=21.9,BA=5.68,STAT.b=19.0
10/06/2021,14:07:17,TEMP=21.9,BA=5.68,STAT.b=19.0
10/06/2021,14:10:17,TEMP=21.9,BA=5.52,STAT.b=19.0
10/06/2021,14:11:36,TEMP=21.9,BA=5.52,STAT.b=19.0
10/06/2021,14:17:28,TEMP=22.6,BA=5.52,STAT.D,ExtBa=12.30
10/06/2021,14:19:01,TEMP=22.7,BA=5.52,STAT.b=19.0
10/06/2021,14:26:24,TEMP=22.7,BA=5.68,STAT.b=19.0
10/06/2021,14:28:17,TEMP=22.7,BA=5.68,STAT.b=19.0
10/06/2021,14:31:17,TEMP=22.7,BA=5.68,STAT.b=19.0
10/06/2021,14:34:17,TEMP=22.7,BA=5.68,STAT.b=19.0
10/06/2021,14:37:17,TEMP=22.7,BA=5.68,STAT.b=19.0
10/06/2021,14:40:17,TEMP=22.7,BA=5.52,STAT.b=19.0
10/06/2021,14:41:36,TEMP=22.7,BA=5.52,STAT.b=19.0
10/06/2021,14:43:17,TEMP=22.7,BA=5.52,STAT.b=19.0
10/06/2021,14:46:17,TEMP=22.7,BA=5.52,STAT.b=19.0
10/06/2021,14:49:17,TEMP=22.7,BA=5.52,STAT.b=19.0
10/06/2021,14:52:17,TEMP=22.7,BA=5.68,STAT.b=19.0
10/06/2021,14:55:17,TEMP=22.7,BA=5.68,STAT.b=19.0
10/06/2021,14:56:36,TEMP=22.7,BA=5.68,STAT.b=19.0
10/06/2021,14:58:17,TEMP=22.7,BA=5.68,STAT.b=19.0
10/06/2021,15:01:18,TEMP=22.7,BA=5.68,STAT.b=19.0
10/06/2021,15:04:17,TEMP=22.7,BA=5.68,STAT.b=19.0
10/06/2021,15:07:17,TEMP=22.7,BA=5.68,STAT.b=19.0
10/06/2021,15:10:17,TEMP=22.7,BA=5.52,STAT.b=19.0
10/06/2021,15:11:36,TEMP=22.7,BA=5.52,STAT.b=19.0
10/06/2021,15:13:17,TEMP=22.7,BA=5.52,STAT.b=19.0
10/06/2021,15:16:17,TEMP=22.7,BA=5.52,STAT.b=19.0
10/06/2021,15:19:17,TEMP=22.7,BA=5.52,STAT.b=19.0
10/06/2021,15:22:17,TEMP=22.7,BA=5.68,STAT.b=19.0
10/06/2021,15:25:17,TEMP=22.7,BA=5.68,STAT.b=19.0
10/06/2021,15:26:38,TEMP=22.7,BA=5.68,STAT.b=19.0
10/06/2021,15:28:17,TEMP=22.7,BA=5.68,STAT.b=19.0
10/06/2021,15:31:18,TEMP=22.7,BA=5.68,STAT.b=19.0
10/06/2021,15:34:17,TEMP=22.7,BA=5.68,STAT.b=19.0
10/06/2021,15:37:34,TEMP=22.7,BA=5.68,STAT.b=19.0
10/06/2021,15:40:34,TEMP=22.7,BA=5.52,STAT.b=19.0
10/06/2021,15:41:52,TEMP=22.7,BA=5.52,STAT.b=19.0
10/06/2021,15:46:17,TEMP=22.7,BA=5.52,STAT.b=19.0
10/06/2021,15:49:17,TEMP=22.7,BA=5.52,STAT.b=19.0
10/06/2021,15:52:17,TEMP=22.7,BA=5.64,STAT.b=19.0
10/06/2021,15:55:34,TEMP=22.7,BA=5.64,STAT.b=19.0
10/06/2021,15:56:52,TEMP=22.7,BA=5.64,STAT.b=19.0
10/06/2021,16:01:17,TEMP=22.7,BA=5.68,STAT.b=19.0
10/06/2021,16:04:34,TEMP=22.7,BA=5.68,STAT.b=19.0
10/06/2021,16:07:17,TEMP=22.7,BA=5.68,STAT.b=19.0
10/06/2021,16:10:17,TEMP=22.7,BA=5.52,STAT.b=19.0
10/06/2021,16:11:36,TEMP=22.7,BA=5.52,STAT.b=19.0
10/06/2021,16:13:17,TEMP=22.7,BA=5.52,STAT.b=19.0
10/06/2021,16:16:18,TEMP=22.7,BA=5.52,STAT.b=19.0
10/06/2021,16:19:17,TEMP=22.7,BA=5.52,STAT.b=19.0
10/06/2021,16:22:17,TEMP=22.7,BA=5.64,STAT.b=19.0
10/06/2021,16:24:11,TEMP=22.7,BA=5.64,STAT.b=19.0
10/06/2021,16:28:17,TEMP=22.7,BA=5.64,STAT.b=19.0
10/06/2021,16:31:34,TEMP=22.7,BA=5.64,STAT.b=19.0
10/06/2021,16:34:17,TEMP=22.7,BA=5.64,STAT.b=19.0
10/06/2021,16:37:17,TEMP=22.7,BA=5.64,STAT.b=19.0
10/06/2021,16:40:17,TEMP=22.7,BA=5.52,STAT.b=19.0
10/06/2021,16:43:17,TEMP=22.7,BA=5.52,STAT.b=19.0
10/06/2021,16:46:17,TEMP=22.7,BA=5.52,STAT.b=19.0
10/06/2021,16:49:17,TEMP=22.7,BA=5.52,STAT.b=19.0
10/06/2021,16:52:17,TEMP=22.7,BA=5.64,STAT.b=19.0
10/06/2021,16:55:17,TEMP=22.7,BA=5.64,STAT.b=19.0
10/06/2021,16:58:17,TEMP=22.7,BA=5.64,STAT.b=19.0
10/06/2021,17:01:17,TEMP=22.7,BA=5.64,STAT.b=19.0
10/06/2021,17:04:17,TEMP=22.7,BA=5.64,STAT.b=19.0
10/06/2021,17:06:25,TEMP=22.7,BA=5.64,STAT.b=19.0
10/06/2021,17:10:17,TEMP=22.7,BA=5.52,STAT.b=19.0
10/06/2021,17:13:17,TEMP=22.7,BA=5.52,STAT.b=19.0
10/06/2021,17:16:17,TEMP=22.7,BA=5.52,STAT.b=19.0
10/06/2021,17:19:17,TEMP=22.7,BA=5.52,STAT.b=19.0
10/06/2021,17:22:17,TEMP=22.7,BA=5.60,STAT.b=19.0
10/06/2021,17:25:17,TEMP=22.7,BA=5.60,STAT.b=19.0
10/06/2021,17:27:01,TEMP=22.7,BA=5.60,STAT.b=19.0
10/06/2021,17:31:17,TEMP=22.7,BA=5.64,STAT.b=19.0
10/06/2021,17:34:17,TEMP=22.7,BA=5.64,STAT.b=19.0
10/06/2021,17:37:17,TEMP=22.7,BA=5.64,STAT.b=19.0
10/06/2021,17:40:17,TEMP=22.7,BA=5.52,STAT.b=19.0
10/06/2021,17:43:17,TEMP=22.7,BA=5.52,STAT.b=19.0
10/06/2021,17:44:38,TEMP=22.7,BA=5.52,STAT.b=19.0
10/06/2021,17:46:17,TEMP=22.7,BA=5.52,STAT.b=19.0
10/06/2021,17:49:34,TEMP=22.7,BA=5.52,STAT.b=19.0
10/06/2021,17:52:17,TEMP=22.7,BA=5.60,STAT.b=19.0
10/06/2021,17:55:17,TEMP=22.7,BA=5.60,STAT.b=19.0
10/06/2021,17:57:50,TEMP=22.7,BA=5.60,STAT.b=19.0
10/06/2021,18:01:17,TEMP=22.7,BA=5.64,STAT.b=19.0
10/06/2021,18:04:17,TEMP=22.7,BA=5.64,STAT.b=19.0
10/06/2021,18:07:17,TEMP=22.7,BA=5.64,STAT.b=19.0
10/06/2021,18:09:46,TEMP=22.7,BA=5.64,STAT.b=19.0
10/06/2021,18:13:17,TEMP=22.7,BA=5.56,STAT.b=19.0
10/06/2021,18:16:17,TEMP=22.7,BA=5.56,STAT.b=19.0
10/06/2021,18:19:17,TEMP=22.7,BA=5.56,STAT.b=19.0
10/06/2021,18:20:38,TEMP=22.7,BA=5.52,STAT.b=19.0
10/06/2021,18:22:17,TEMP=22.7,BA=5.52,STAT.b=19.0
10/06/2021,18:25:17,TEMP=22.7,BA=5.52,STAT.b=19.0
10/06/2021,18:28:17,TEMP=22.7,BA=5.52,STAT.b=19.0
10/06/2021,18:29:38,TEMP=22.7,BA=5.52,STAT.b=19.0
10/06/2021,18:31:17,TEMP=22.7,BA=5.56,STAT.b=19.0
10/06/2021,18:34:17,TEMP=22.7,BA=5.56,STAT.b=19.0
10/06/2021,18:37:02,TEMP=22.7,BA=5.56,STAT.b=19.0
10/06/2021,18:40:17,TEMP=22.7,BA=5.52,STAT.b=19.0
10/06/2021,18:43:34,TEMP=22.7,BA=5.52,STAT.b=19.0
10/06/2021,18:44:54,TEMP=22.7,BA=5.52,STAT.b=19.0
10/06/2021,18:49:17,TEMP=22.7,BA=5.52,STAT.b=19.0
10/06/2021,18:50:38,TEMP=22.7,BA=5.52,STAT.b=19.0
10/06/2021,18:52:17,TEMP=22.7,BA=5.52,STAT.b=19.0
10/06/2021,18:55:17,TEMP=22.7,BA=5.52,STAT.b=19.0
10/06/2021,18:56:38,TEMP=22.7,BA=5.52,STAT.b=19.0
10/06/2021,18:58:17,TEMP=22.7,BA=5.52,STAT.b=19.0
10/06/2021,19:01:17,TEMP=22.7,BA=5.60,STAT.b=19.0
10/06/2021,19:04:17,TEMP=22.7,BA=5.60,STAT.b=19.0
10/06/2021,19:07:17,TEMP=22.7,BA=5.60,STAT.b=19.0
10/06/2021,19:08:38,TEMP=22.7,BA=5.60,STAT.b=19.0
10/06/2021,19:10:17,TEMP=22.7,BA=5.48,STAT.b=19.0
10/06/2021,19:13:17,TEMP=22.7,BA=5.48,STAT.b=19.0
10/06/2021,19:16:17,TEMP=22.7,BA=5.48,STAT.b=19.0
10/06/2021,19:18:09,TEMP=22.7,BA=5.48,STAT.b=19.0
10/06/2021,19:22:17,TEMP=22.7,BA=5.52,STAT.b=19.0
10/06/2021,19:25:17,TEMP=22.7,BA=5.52,STAT.b=19.0
10/06/2021,19:26:38,TEMP=22.7,BA=5.52,STAT.b=19.0
10/06/2021,19:28:17,TEMP=22.7,BA=5.52,STAT.b=19.0
10/06/2021,19:31:17,TEMP=22.7,BA=5.52,STAT.b=19.0
10/06/2021,19:33:04,TEMP=22.7,BA=5.52,STAT.b=19.0
10/06/2021,19:37:17,TEMP=22.7,BA=5.52,STAT.b=19.0
10/06/2021,19:38:52,TEMP=22.7,BA=5.52,STAT.b=19.0
10/06/2021,19:40:17,TEMP=22.7,BA=5.44,STAT.b=19.0
10/06/2021,19:43:17,TEMP=22.7,BA=5.44,STAT.b=19.0
10/06/2021,19:44:38,TEMP=22.7,BA=5.44,STAT.b=19.0